{"data":{"norad_id":48455,"epoch":"2026-09-19T23:35:48.620832Z","epoch_age_seconds":81891,"freshness":"FRESH","line1":"1 48455U 21040AD  26262.98320163  .00002496  00000+0  92233-4 0  9996","line2":"2 48455  53.1608 354.1735 0001388  92.3525 267.7635 15.31679318296440","mean_motion":15.31679318,"eccentricity":0.0001388,"inclination_deg":53.1608,"raan_deg":354.1735,"arg_perigee_deg":92.3525,"mean_anomaly_deg":267.7635,"bstar":9.2233e-5,"rev_number":29644,"period_min":94.01445740485,"perigee_km":469.85101520085,"apogee_km":471.7522805695,"semimajor_km":6848.9386478852,"source":"CELESTRAK","updated_at":"2026-09-20T09:00:39.127240Z"}}